Location: ??
(35.4032°N, 139.3073°E)
Time: 03:42:37
(UTC+00:00)

Cosmos 1553 Rocket - Pass Details

Date: 13 April 2024
Orbit: 940 x 1008 km, 82.9° (Epoch: 25 May)

Event Time Altitude Azimuth Distance (km) Brightness Sun altitude
Rises 19:06:56 0° 347° (NNW) 3,700 7.1 -13.5°
Reaches altitude 10° 19:09:33 10° 342° (NNW) 2,738 6.4 -13.0°
Maximum altitude 19:15:31 49° 270° (W) 1,236 4.2 -11.8°
Drops below altitude 10° 19:21:22 10° 197° (SSW) 2,678 6.0 -10.7°
Sets 19:23:55 0° 192° (SSW) 3,611 6.7 -10.2°
